AST,Max TemperatureF,Mean TemperatureF,Min TemperatureF,Max Dew PointF,MeanDew PointF,Min DewpointF,Max Humidity, Mean Humidity, Min Humidity, Max Sea Level PressureIn, Mean Sea Level PressureIn, Min Sea Level PressureIn, Max VisibilityMiles, Mean VisibilityMiles, Min VisibilityMiles, Max Wind SpeedMPH, Mean Wind SpeedMPH, Max Gust SpeedMPH,PrecipitationIn, CloudCover, Events, WindDirDegrees
2012-10-1,91,84,76,77,76,73,94,74,53,30.01,29.95,29.86,10,7,6,9,4,,0.00,2,Thunderstorm,136
2012-10-2,91,84,78,77,76,75,89,74,58,30.06,30.00,29.95,10,7,5,14,7,,0.00,4,Thunderstorm,115
2012-10-3,91,84,76,78,75,72,89,72,57,30.08,30.02,29.98,10,7,5,12,8,,0.12,3,,101
2012-10-4,91,86,80,76,74,72,79,69,59,30.04,29.98,29.86,10,7,6,14,9,,0.00,2,,94
2012-10-5,89,82,74,77,75,72,100,79,55,29.98,29.89,29.80,10,6,4,15,8,,4.72,2,Rain,79
2012-10-6,89,80,72,75,74,70,100,84,56,29.87,29.82,29.77,10,7,5,12,2,,0.00,3,Thunderstorm,39
2012-10-7,90,80,70,77,75,72,100,80,57,29.96,29.88,29.83,10,7,6,17,4,,0.00,2,,187
2012-10-8,89,84,78,81,77,75,94,79,65,30.02,29.96,29.92,10,6,5,12,7,,0.00,3,Thunderstorm,152
2012-10-9,90,82,75,77,76,75,100,81,59,30.01,29.97,29.92,10,7,6,9,2,,0.00,3,Thunderstorm,136
2012-10-10,91,82,74,77,75,72,94,75,59,30.00,29.94,29.89,10,7,4,12,4,,0.00,2,Rain,106
2012-10-11,90,83,76,79,77,73,94,82,62,29.97,29.90,29.86,10,7,6,12,4,,0.00,2,,113
2012-10-12,90,84,77,79,76,70,100,76,61,29.93,29.88,29.83,10,7,5,12,7,,0.00,1,Rain-Thunderstorm,112
2012-10-13,90,84,78,79,77,75,95,83,59,29.89,29.81,29.56,17,7,5,16,6,,0.03,3,Rain-Thunderstorm,56
2012-10-14,91,84,77,78,77,75,94,82,63,29.80,29.76,29.71,10,7,5,16,8,,0.03,4,,20
2012-10-15,91,83,75,79,76,73,100,86,60,29.77,29.72,29.68,10,6,5,69,7,,0.00,3,Rain-Thunderstorm,309
2012-10-16,88,82,76,79,76,73,100,90,58,29.86,29.77,29.71,10,6,4,12,2,,1.34,5,Rain-Thunderstorm,299
2012-10-17,87,80,73,79,76,72,100,86,65,29.93,29.86,29.80,10,7,6,12,2,,0.04,2,,190
2012-10-18,88,82,75,79,77,75,100,83,66,29.95,29.89,29.83,10,7,5,13,5,,0.04,3,Rain-Thunderstorm,133
2012-10-19,88,82,75,77,76,73,100,84,62,29.92,29.88,29.83,10,7,5,13,3,,0.08,4,Rain-Thunderstorm,139
2012-10-20,88,82,75,77,74,72,94,77,56,29.94,29.88,29.83,10,7,6,14,4,,0.00,3,,138
2012-10-21,87,81,75,75,74,72,94,78,56,29.92,29.86,29.80,10,7,5,12,5,,0.00,3,,127
2012-10-22,88,80,72,77,75,72,100,85,58,29.88,29.83,29.77,10,7,5,12,3,,0.00,3,Rain-Thunderstorm,149
2012-10-23,88,80,71,75,74,70,100,81,54,29.88,29.82,29.77,10,6,1,17,4,29,0.20,6,Rain-Thunderstorm,119
2012-10-24,84,80,75,77,76,73,100,87,74,29.86,29.82,29.75,10,5,4,16,6,,0.08,8,Rain-Thunderstorm,165
2012-10-25,82,76,71,77,75,72,100,86,77,29.83,29.79,29.74,10,5,0,18,13,46,1.54,8,Rain-Thunderstorm,196
2012-10-26,86,78,70,81,77,72,100,89,79,29.83,29.79,29.77,10,6,1,17,11,37,0.00,6,Rain-Thunderstorm,218
2012-10-27,89,84,78,79,78,75,94,83,64,29.86,29.76,29.71,10,6,6,18,11,,0.00,4,,235
2012-10-28,89,81,73,77,75,71,100,82,56,29.86,29.79,29.68,10,7,6,14,7,,0.00,1,,248
2012-10-29,86,78,71,77,74,71,100,86,63,29.92,29.85,29.80,10,7,6,14,3,,0.00,2,,200
2012-10-30,87,80,73,79,76,72,100,86,75,29.98,29.92,29.86,10,6,6,12,3,,0.00,4,Thunderstorm,213
2012-10-31,87,80,73,79,76,72,100,87,71,30.02,29.95,29.92,10,7,4,12,2,,0.08,3,,103